Location: Bégole
(43.1574°N, 0.3291°E)
Time: 07:21:49
(UTC+00:00)

ATLAS 2AS CENTAUR R/B - Pass Details

Date: 28 January 2023
Orbit: 986 x 1226 km, 63.7° (Epoch: 23 March)

Event Time Altitude Azimuth Distance (km) Brightness Sun altitude
Rises 21:02:02 0° 316° (NW) 3,920 6.3 -43.0°
Reaches altitude 10° 21:05:07 10° 306° (NW) 2,919 5.5 -43.5°
Enters shadow 21:09:01 26° 275° (W) 1,956 4.4 -44.2°
